Regional Weather Roundup
Issued by NWS

Home | Current Version | Previous Version | Graphics & Text | Print | Product List | Glossary On
Versions: 1 2 3 4 5 6 7 8 9 10 11 12 13 14 15 16 17 18 19 20 21 22 23 24 25 26 27 28 29 30 31 32 33 34 35 36 37 38 39 40 41 42 43 44 45 46 47 48 49 50
000
ASUS43 KLMK 132302
RWRKY
KENTUCKY REGIONAL WEATHER ROUNDUP
NATIONAL WEATHER SERVICE LOUISVILLE KY
700 PM EDT SUN JUL 13 2014

NOTE "FAIR" INDICATES FEW OR NO CLOUDS BELOW 12,000 FEET
WITH NO SIGNIFICANT WEATHER AND/OR OBSTRUCTIONS TO VISIBILITY.

KYZ001>023-026-027-061>063-070>075-140000-
WESTERN AND SOUTH CENTRAL KENTUCKY

CITY           SKY/WX    TMP DP  RH WIND       PRES   REMARKS
PADUCAH        SUNNY     92  72  51 SW10      29.93F HX  99
HENDERSON      SUNNY     90  73  58 W8        29.91S HX  98
OWENSBORO      MOSUNNY   91  73  55 W9        29.93S HX  99
HOPKINSVILLE   SUNNY     92  71  49 SW16      29.97S HX  98
BOWLING GREEN  SUNNY     92  68  45 W12G23    29.96S HX  96
GLASGOW        NOT AVBL
$$

KYZ024-025-028>034-038-045-046-053-140000-
NORTH CENTRAL KENTUCKY

CITY           SKY/WX    TMP DP  RH WIND       PRES   REMARKS
LOUISVILLE/SDF MOSUNNY   93  66  40 SW18G28   29.91F HX  96
LOUISVILLE/LOU MOSUNNY   86  70  58 N7        29.92S HX  90
FORT KNOX      NOT AVBL
$$

KYZ035>037-039>044-047>052-055>060-089>105-140000-
NORTHEAST KENTUCKY

CITY           SKY/WX    TMP DP  RH WIND       PRES   REMARKS
LEXINGTON      MOSUNNY   90  69  50 SW12      29.95F HX  94
COVINGTON      CLOUDY    79  70  74 W10       29.93S
FRANKFORT      PTSUNNY   84  69  60 N6        29.93R
$$

KYZ054-064>069-076>088-106>120-140000-
SOUTHEAST KENTUCKY

CITY           SKY/WX    TMP DP  RH WIND       PRES   REMARKS
JACKSON        MOSUNNY   85  67  54 VRB5      29.99F
LONDON         MOSUNNY   88  69  53 S9        30.00F HX  92
SOMERSET       PTSUNNY   90  61  37 SW13      29.99S
MIDDLESBORO    MOSUNNY   86  69  56 S7        30.03S HX  90
MONTICELLO     CLEAR     90  70  51 SW9       30.00F HX  95
$$




USA.gov is the U.S. government's official web portal to all federal, state and local government web resources and services.